Weather History for Columbia, MO

Change the Weather History Date:

Friday, May 30, 2014

  Actual Average Record
Temperature  
Mean Temperature 76 °F 68 °F  
Max Temperature 84 °F 78 °F 99 °F (1934)
Min Temperature 67 °F 58 °F 39 °F (1984)
Degree Days  
Heating Degree Days 0 1  
Month to date heating degree days 113 108  
Since 1 July heating degree days 5572 5011  
Cooling Degree Days 11 4  
Month to date cooling degree days 137 73  
Year to date cooling degree days 148 98  
Growing Degree Days 25 (Base 50)    
Moisture  
Dew Point 67 °F    
Average Humidity 79    
Maximum Humidity 100    
Minimum Humidity 58    
Precipitation  
Precipitation 0.01 in 0.16 in 2.98 in (1974)
Month to date precipitation 3.05 4.83  
Year to date precipitation 14.82 16.40  
Snow  
Snow 0.00 in 0.00 in 0.00 in (2012)
Month to date snowfall 0.0 0.0  
Since 1 July snowfall 17.8 18.0  
Snow Depth 0.00 in    
Sea Level Pressure  
Sea Level Pressure 30.03 in    
Wind  
Wind Speed 7 mph (East)    
Max Wind Speed 16 mph    
Max Gust Speed 21 mph    
Visibility 10 miles    
Events Rain , Thunderstorm    
T = Trace of Precipitation, MM = Missing Value Source: NWS Daily Summary

Daily Weather History Graph

Daily Weather History Graph

Search for Another Location

Airport:

Trip Planner

Search our weather history database for the weather conditions in past years. The results will help you decide how hot, cold, wet, or windy it might be!

Date:

Astronomy

May. 30, 2014 Rise Set
Actual Time 5:46 AM CDT 8:26 PM CDT
Civil Twilight 5:15 AM CDT 8:58 PM CDT
Nautical Twilight 4:36 AM CDT 9:37 PM CDT
Astronomical Twilight 3:52 AM CDT 10:21 PM CDT
Moon 7:30 AM CDT (5/30) 10:04 PM CDT (5/30)
Length of Visible Light 15h 42m
Length of Day
14h 40m
Waxing Crescent, 4% of the Moon is Illuminated
May 30
Waxing Crescent
Jun 5
First Quarter
Jun 12
Full
Jun 19
Last Quarter
Jun 27
New

Hourly Weather History & Observations

Time (CDT) Temp. Heat Index Dew Point Humidity Pressure Visibility Wind Dir Wind Speed Gust Speed Precip Events Conditions
12:54 AM 69.1 °F - 64.9 °F 87% 30.00 in 10.0 mi East 4.6 mph - N/A   Clear
1:54 AM 69.1 °F - 64.9 °F 87% 30.00 in 10.0 mi ESE 6.9 mph - N/A   Clear
2:54 AM 69.1 °F - 64.9 °F 87% 30.01 in 10.0 mi ESE 4.6 mph - N/A   Partly Cloudy
3:54 AM 68.0 °F - 64.4 °F 88% 30.03 in 10.0 mi East 4.6 mph - N/A   Clear
4:54 AM 68.0 °F - 66.0 °F 93% 30.02 in 10.0 mi Calm Calm - N/A   Partly Cloudy
5:54 AM 66.9 °F - 64.9 °F 93% 30.02 in 10.0 mi ENE 4.6 mph - N/A   Clear
6:54 AM 70.0 °F - 66.0 °F 87% 30.02 in 10.0 mi East 4.6 mph - N/A   Partly Cloudy
7:54 AM 73.0 °F - 66.9 °F 81% 30.04 in 10.0 mi ESE 5.8 mph - N/A   Clear
8:54 AM 75.9 °F - 68.0 °F 76% 30.06 in 10.0 mi East 5.8 mph - N/A   Clear
9:20 AM 75.9 °F - 68.0 °F 76% 30.09 in 10.0 mi SE 8.1 mph - N/A   Mostly Cloudy
9:47 AM 75.9 °F - 66.9 °F 74% 30.09 in 10.0 mi ESE 5.8 mph - N/A   Mostly Cloudy
9:54 AM 77.0 °F - 68.0 °F 74% 30.07 in 10.0 mi SE 5.8 mph - N/A   Mostly Cloudy
10:54 AM 79.0 °F - 66.9 °F 66% 30.07 in 10.0 mi East 4.6 mph - N/A   Partly Cloudy
11:54 AM 82.0 °F 84.5 °F 66.9 °F 60% 30.06 in 10.0 mi East 12.7 mph - N/A   Scattered Clouds
12:54 PM 80.6 °F 82.7 °F 66.2 °F 61% 30.07 in 10.0 mi East 6.9 mph - N/A   Scattered Clouds
1:54 PM 82.0 °F 84.5 °F 66.9 °F 60% 30.03 in 10.0 mi East 10.4 mph - N/A Thunderstorm Scattered Clouds
2:04 PM 81.0 °F 83.8 °F 68.0 °F 65% 30.05 in 10.0 mi ENE 8.1 mph - N/A   Mostly Cloudy
2:54 PM 78.1 °F - 69.1 °F 74% 30.01 in 10.0 mi NE 8.1 mph - N/A   Mostly Cloudy
3:30 PM 82.0 °F 84.9 °F 68.0 °F 62% 30.03 in 10.0 mi ENE 11.5 mph - N/A Thunderstorm Partly Cloudy
3:54 PM 80.6 °F 82.7 °F 66.2 °F 61% 30.04 in 10.0 mi East 12.7 mph - N/A Thunderstorm Mostly Cloudy
4:19 PM 73.9 °F - 70.0 °F 87% 30.04 in 6.0 mi East 9.2 mph - 0.01 in Rain Light Rain
5:54 PM 81.0 °F 84.1 °F 69.1 °F 67% 29.99 in 10.0 mi East 10.4 mph - N/A   Clear
6:54 PM 77.0 °F - 66.9 °F 71% 30.01 in 10.0 mi ESE 9.2 mph 19.6 mph N/A   Clear
7:54 PM 75.0 °F - 68.0 °F 79% 30.01 in 10.0 mi East 8.1 mph - N/A   Clear
8:54 PM 73.0 °F - 68.0 °F 84% 30.02 in 10.0 mi East 6.9 mph - N/A   Clear
9:54 PM 71.1 °F - 68.0 °F 90% 30.04 in 10.0 mi East 5.8 mph - N/A   Clear
10:54 PM 70.0 °F - 69.1 °F 97% 30.04 in 6.0 mi East 6.9 mph - N/A   Clear
11:54 PM 70.0 °F - 68.0 °F 93% 30.05 in 8.0 mi ESE 5.8 mph - N/A   Clear